Time,TemperatureF,DewpointF,PressureIn,WindDirection,WindDirectionDegrees,WindSpeedMPH,WindSpeedGustMPH,Humidity,HourlyPrecipIn,Conditions,Clouds,dailyrainin,SoftwareType,DateUTC
2013-06-21 01:21:00,52.1,52.1,30.11,SE,135,1.5,6.0,100,0.02,,,0.03,NetBSD+Arduino,2013-06-21 08:21:00,
2013-06-21 01:26:00,52.0,52.0,30.12,SE,135,1.5,9.0,100,0.02,,,0.03,NetBSD+Arduino,2013-06-21 08:26:00,
2013-06-21 01:31:00,52.0,52.0,30.12,SE,135,1.5,6.0,100,0.02,,,0.03,NetBSD+Arduino,2013-06-21 08:31:00,
2013-06-21 01:36:00,52.0,52.0,30.11,SE,135,1.5,7.5,100,0.00,,,0.03,NetBSD+Arduino,2013-06-21 08:36:00,
2013-06-21 01:41:00,52.1,52.1,30.12,SE,135,4.5,4.5,100,0.00,,,0.03,NetBSD+Arduino,2013-06-21 08:41:00,
2013-06-21 01:46:00,52.1,52.1,30.12,SE,135,3.0,4.5,100,0.00,,,0.03,NetBSD+Arduino,2013-06-21 08:46:00,
2013-06-21 01:51:00,52.3,52.3,30.11,South,180,1.5,4.5,100,0.00,,,0.03,NetBSD+Arduino,2013-06-21 08:51:00,
2013-06-21 01:56:00,52.3,52.3,30.12,SE,135,4.5,6.0,100,0.00,,,0.03,NetBSD+Arduino,2013-06-21 08:56:00,
2013-06-21 02:01:00,52.3,52.3,30.12,SE,135,4.5,4.5,100,0.00,,,0.03,NetBSD+Arduino,2013-06-21 09:01:00,
2013-06-21 02:06:00,52.3,52.3,30.12,SE,135,1.5,4.5,100,0.00,,,0.03,NetBSD+Arduino,2013-06-21 09:06:00,
2013-06-21 02:11:00,52.2,52.2,30.11,South,180,1.5,4.5,100,0.00,,,0.03,NetBSD+Arduino,2013-06-21 09:11:00,
2013-06-21 02:16:00,52.1,52.1,30.12,SE,135,3.0,4.5,100,0.00,,,0.03,NetBSD+Arduino,2013-06-21 09:16:00,
2013-06-21 02:21:00,52.2,52.2,30.11,WNW,296,0.0,3.0,100,0.00,,,0.03,NetBSD+Arduino,2013-06-21 09:21:00,
2013-06-21 02:27:00,52.3,52.3,30.11,South,180,1.5,4.5,100,0.00,,,0.03,NetBSD+Arduino,2013-06-21 09:27:00,
2013-06-21 02:32:00,52.3,52.3,30.11,WNW,297,0.0,3.0,100,0.00,,,0.03,NetBSD+Arduino,2013-06-21 09:32:00,
2013-06-21 02:37:00,52.3,52.3,30.11,SW,225,1.5,4.5,100,0.00,,,0.03,NetBSD+Arduino,2013-06-21 09:37:00,
2013-06-21 02:42:00,52.4,52.4,30.11,WNW,297,1.5,4.5,100,0.00,,,0.03,NetBSD+Arduino,2013-06-21 09:42:00,
2013-06-21 02:47:00,52.3,52.3,30.11,SE,135,1.5,4.5,100,0.00,,,0.03,NetBSD+Arduino,2013-06-21 09:47:00,
2013-06-21 02:52:00,52.3,52.3,30.12,SE,135,1.5,3.0,100,0.00,,,0.03,NetBSD+Arduino,2013-06-21 09:52:00,
2013-06-21 02:57:00,52.3,52.3,30.11,SE,135,0.0,3.0,100,0.00,,,0.03,NetBSD+Arduino,2013-06-21 09:57:00,
2013-06-21 03:02:00,52.3,52.3,30.12,East,90,0.0,0.0,100,0.00,,,0.03,NetBSD+Arduino,2013-06-21 10:02:00,
2013-06-21 03:07:00,52.3,52.3,30.12,SSW,197,0.0,1.5,100,0.00,,,0.03,NetBSD+Arduino,2013-06-21 10:07:00,
2013-06-21 03:12:00,52.5,52.5,30.11,SSW,196,0.0,0.0,100,0.00,,,0.03,NetBSD+Arduino,2013-06-21 10:12:00,
2013-06-21 03:17:00,52.6,52.6,30.11,WNW,297,0.0,0.0,100,0.00,,,0.03,NetBSD+Arduino,2013-06-21 10:17:00,
2013-06-21 03:23:00,52.6,52.6,30.11,WNW,298,0.0,1.5,100,0.00,,,0.03,NetBSD+Arduino,2013-06-21 10:23:00,
2013-06-21 03:28:00,52.6,52.6,30.11,WNW,296,0.0,0.0,100,0.00,,,0.03,NetBSD+Arduino,2013-06-21 10:28:00,
2013-06-21 03:33:00,52.6,52.6,30.11,SSW,198,0.0,0.0,100,0.00,,,0.03,NetBSD+Arduino,2013-06-21 10:33:00,
2013-06-21 03:38:00,52.6,52.6,30.11,South,180,0.0,0.0,100,0.00,,,0.03,NetBSD+Arduino,2013-06-21 10:38:00,
2013-06-21 03:43:00,52.6,52.6,30.12,SSW,196,1.5,1.5,100,0.00,,,0.03,NetBSD+Arduino,2013-06-21 10:43:00,
2013-06-21 03:48:00,52.5,52.5,30.11,ESE,111,0.0,1.5,100,0.00,,,0.03,NetBSD+Arduino,2013-06-21 10:48:00,
2013-06-21 03:53:00,52.5,52.5,30.11,ESE,108,1.5,3.0,100,0.00,,,0.03,NetBSD+Arduino,2013-06-21 10:53:00,
2013-06-21 03:58:00,52.6,52.6,30.12,SSW,199,0.0,3.0,100,0.00,,,0.03,NetBSD+Arduino,2013-06-21 10:58:00,
2013-06-21 04:03:00,52.6,52.6,30.12,SSW,198,1.5,3.0,100,0.00,,,0.03,NetBSD+Arduino,2013-06-21 11:03:00,
2013-06-21 04:08:00,52.6,52.6,30.11,ESE,110,0.0,1.5,100,0.00,,,0.03,NetBSD+Arduino,2013-06-21 11:08:00,
2013-06-21 04:13:00,52.6,52.6,30.12,ESE,110,1.5,3.0,100,0.00,,,0.03,NetBSD+Arduino,2013-06-21 11:13:00,
2013-06-21 04:18:00,52.6,52.6,30.12,ESE,112,0.0,1.5,100,0.00,,,0.03,NetBSD+Arduino,2013-06-21 11:18:00,
2013-06-21 04:23:00,52.6,52.6,30.11,SSW,198,0.0,0.0,100,0.00,,,0.03,NetBSD+Arduino,2013-06-21 11:23:00,
2013-06-21 04:29:00,52.6,52.6,30.11,SSW,198,0.0,0.0,100,0.00,,,0.03,NetBSD+Arduino,2013-06-21 11:29:00,
2013-06-21 04:34:00,52.6,52.6,30.12,SSW,199,0.0,0.0,100,0.00,,,0.03,NetBSD+Arduino,2013-06-21 11:34:00,
2013-06-21 04:39:00,52.5,52.5,30.11,SSW,199,0.0,0.0,100,0.00,,,0.03,NetBSD+Arduino,2013-06-21 11:39:00,
2013-06-21 04:44:00,52.6,52.6,30.12,SSW,197,0.0,0.0,100,0.00,,,0.03,NetBSD+Arduino,2013-06-21 11:44:00,
2013-06-21 04:49:00,52.6,52.6,30.11,WNW,300,0.0,0.0,100,0.00,,,0.03,NetBSD+Arduino,2013-06-21 11:49:00,
2013-06-21 04:54:00,52.6,52.6,30.11,South,180,1.5,3.0,100,0.00,,,0.03,NetBSD+Arduino,2013-06-21 11:54:00,
2013-06-21 04:59:00,52.7,52.7,30.11,SE,135,0.0,3.0,100,0.00,,,0.03,NetBSD+Arduino,2013-06-21 11:59:00,
2013-06-21 05:04:00,52.7,52.7,30.11,West,270,0.0,0.0,100,0.00,,,0.03,NetBSD+Arduino,2013-06-21 12:04:00,
2013-06-21 05:09:00,52.7,52.7,30.12,NW,315,0.0,0.0,100,0.00,,,0.03,NetBSD+Arduino,2013-06-21 12:09:00,
2013-06-21 05:14:00,52.8,52.8,30.12,West,270,0.0,0.0,100,0.00,,,0.03,NetBSD+Arduino,2013-06-21 12:14:00,
2013-06-21 05:19:00,52.7,52.7,30.12,West,270,0.0,3.0,100,0.00,,,0.03,NetBSD+Arduino,2013-06-21 12:19:00,
2013-06-21 05:24:00,52.7,52.7,30.12,SSW,196,0.0,0.0,100,0.00,,,0.03,NetBSD+Arduino,2013-06-21 12:24:00,
2013-06-21 05:29:00,52.7,52.7,30.12,SSW,198,0.0,0.0,100,0.00,,,0.03,NetBSD+Arduino,2013-06-21 12:29:00,
2013-06-21 05:34:00,52.8,52.8,30.12,SSW,198,0.0,0.0,100,0.00,,,0.03,NetBSD+Arduino,2013-06-21 12:34:00,
2013-06-21 05:39:00,52.8,52.8,30.12,ESE,109,0.0,0.0,100,0.00,,,0.03,NetBSD+Arduino,2013-06-21 12:39:00,
2013-06-21 05:44:00,52.8,52.8,30.12,ESE,110,0.0,0.0,100,0.00,,,0.03,NetBSD+Arduino,2013-06-21 12:44:00,
2013-06-21 05:49:00,52.8,52.8,30.12,ESE,110,0.0,0.0,100,0.00,,,0.03,NetBSD+Arduino,2013-06-21 12:49:00,
2013-06-21 05:54:00,52.8,52.8,30.12,ESE,110,0.0,0.0,100,0.00,,,0.03,NetBSD+Arduino,2013-06-21 12:54:00,
2013-06-21 05:59:00,52.8,52.8,30.12,SSW,198,0.0,0.0,100,0.00,,,0.03,NetBSD+Arduino,2013-06-21 12:59:00,
2013-06-21 06:04:00,52.8,52.8,30.12,ESE,110,0.0,0.0,100,0.00,,,0.03,NetBSD+Arduino,2013-06-21 13:04:00,
2013-06-21 06:09:00,52.7,52.7,30.13,SSW,197,0.0,0.0,100,0.00,,,0.03,NetBSD+Arduino,2013-06-21 13:09:00,
2013-06-21 06:14:00,52.8,52.8,30.13,SE,135,0.0,0.0,100,0.00,,,0.03,NetBSD+Arduino,2013-06-21 13:14:00,
2013-06-21 06:19:00,53.0,53.0,30.13,SE,135,0.0,1.5,100,0.00,,,0.03,NetBSD+Arduino,2013-06-21 13:19:00,
2013-06-21 06:24:00,52.8,52.8,30.13,South,180,1.5,3.0,100,0.00,,,0.03,NetBSD+Arduino,2013-06-21 13:24:00,
2013-06-21 06:30:00,52.9,52.9,30.12,WNW,297,0.0,3.0,100,0.00,,,0.03,NetBSD+Arduino,2013-06-21 13:30:00,
2013-06-21 06:35:00,53.0,53.0,30.12,SW,225,0.0,3.0,100,0.00,,,0.03,NetBSD+Arduino,2013-06-21 13:35:00,
2013-06-21 06:40:00,53.1,53.1,30.13,SE,135,1.5,3.0,100,0.00,,,0.03,NetBSD+Arduino,2013-06-21 13:40:00,
2013-06-21 06:46:00,53.1,53.1,30.13,WNW,296,0.0,3.0,100,0.00,,,0.03,NetBSD+Arduino,2013-06-21 13:46:00,
2013-06-21 06:51:00,53.1,53.1,30.13,South,180,1.5,3.0,100,0.00,,,0.03,NetBSD+Arduino,2013-06-21 13:51:00,
2013-06-21 06:56:00,53.3,53.3,30.15,South,180,1.5,3.0,100,0.00,,,0.03,NetBSD+Arduino,2013-06-21 13:56:00,
2013-06-21 07:09:00,53.4,53.4,30.15,SE,135,1.5,3.0,100,0.00,,,0.03,NetBSD+Arduino,2013-06-21 14:09:00,
2013-06-21 08:51:00,55.9,55.1,30.16,South,180,0.0,3.0,97,0.00,,,0.03,NetBSD+Arduino,2013-06-21 15:51:00,
2013-06-21 08:56:00,56.4,55.4,30.16,South,180,1.5,3.0,96,0.00,,,0.03,NetBSD+Arduino,2013-06-21 15:56:00,
2013-06-21 09:01:00,57.0,56.0,30.16,SE,135,3.0,3.0,95,0.00,,,0.03,NetBSD+Arduino,2013-06-21 16:01:00,
2013-06-21 09:06:00,57.4,55.9,30.16,SE,135,3.0,4.5,94,0.00,,,0.03,NetBSD+Arduino,2013-06-21 16:06:00,
2013-06-21 09:11:00,57.5,55.3,30.15,East,90,3.0,6.0,92,0.00,,,0.03,NetBSD+Arduino,2013-06-21 16:11:00,
2013-06-21 09:17:00,58.0,56.2,30.15,WSW,256,1.5,3.0,93,0.00,,,0.03,NetBSD+Arduino,2013-06-21 16:17:00,
2013-06-21 09:23:00,58.8,56.7,30.16,SE,135,1.5,4.5,93,0.00,,,0.03,NetBSD+Arduino,2013-06-21 16:23:00,
2013-06-21 09:28:00,59.5,57.2,30.16,SE,135,1.5,4.5,91,0.00,,,0.03,NetBSD+Arduino,2013-06-21 16:28:00,
2013-06-21 09:33:00,60.4,56.8,30.16,ESE,109,0.0,4.5,87,0.00,,,0.03,NetBSD+Arduino,2013-06-21 16:33:00,
2013-06-21 09:38:00,59.9,55.4,30.16,SE,135,3.0,6.0,85,0.00,,,0.03,NetBSD+Arduino,2013-06-21 16:38:00,
2013-06-21 09:44:00,59.3,54.5,30.16,WNW,297,4.5,6.0,84,0.00,,,0.03,NetBSD+Arduino,2013-06-21 16:44:00,
2013-06-21 09:50:00,59.5,55.8,30.16,SE,135,3.0,6.0,87,0.00,,,0.03,NetBSD+Arduino,2013-06-21 16:50:00,
2013-06-21 09:55:00,59.2,55.8,30.16,SSW,198,0.0,6.0,88,0.00,,,0.03,NetBSD+Arduino,2013-06-21 16:55:00,
2013-06-21 10:00:00,59.0,55.0,30.16,WNW,298,0.0,7.5,86,0.00,,,0.03,NetBSD+Arduino,2013-06-21 17:00:00,
2013-06-21 10:06:00,58.5,54.8,30.16,SE,135,3.0,6.0,87,0.00,,,0.03,NetBSD+Arduino,2013-06-21 17:06:00,
2013-06-21 10:12:00,58.2,55.1,30.16,SE,135,1.5,4.5,89,0.00,,,0.03,NetBSD+Arduino,2013-06-21 17:12:00,
2013-06-21 10:18:00,58.3,55.2,30.16,SW,225,1.5,6.0,89,0.00,,,0.03,NetBSD+Arduino,2013-06-21 17:18:00,
2013-06-21 10:24:00,58.5,55.7,30.16,SW,225,0.0,1.5,90,0.00,,,0.03,NetBSD+Arduino,2013-06-21 17:24:00,
2013-06-21 10:29:00,58.6,56.0,30.16,West,270,0.0,3.0,90,0.00,,,0.03,NetBSD+Arduino,2013-06-21 17:29:00,
2013-06-21 10:35:00,58.3,54.8,30.16,West,270,0.0,3.0,87,0.00,,,0.03,NetBSD+Arduino,2013-06-21 17:35:00,
2013-06-21 10:40:00,58.8,54.9,30.16,South,180,0.0,3.0,87,0.00,,,0.03,NetBSD+Arduino,2013-06-21 17:40:00,
2013-06-21 10:46:00,59.0,54.8,30.17,ESE,110,0.0,1.5,85,0.00,,,0.03,NetBSD+Arduino,2013-06-21 17:46:00,
2013-06-21 10:48:00,59.3,55.8,30.17,South,180,0.0,0.0,88,0.00,,,0.03,NetBSD+Arduino,2013-06-21 17:48:00,
2013-06-21 10:49:00,59.2,55.1,30.17,South,180,0.0,0.0,86,0.00,,,0.03,NetBSD+Arduino,2013-06-21 17:49:00,
2013-06-21 10:51:00,59.0,54.7,30.17,SW,225,1.5,3.0,85,0.00,,,0.03,NetBSD+Arduino,2013-06-21 17:51:00,
2013-06-21 10:56:00,59.2,54.7,30.17,SE,135,3.0,4.5,85,0.00,,,0.03,NetBSD+Arduino,2013-06-21 17:56:00,
2013-06-21 11:02:00,59.4,56.0,30.16,West,270,0.0,1.5,88,0.00,,,0.03,NetBSD+Arduino,2013-06-21 18:02:00,
2013-06-21 11:07:00,59.9,56.4,30.16,SW,225,1.5,3.0,88,0.00,,,0.03,NetBSD+Arduino,2013-06-21 18:07:00,
2013-06-21 11:13:00,60.0,55.8,30.17,South,180,1.5,3.0,85,0.00,,,0.03,NetBSD+Arduino,2013-06-21 18:13:00,
2013-06-21 11:19:00,60.0,54.0,30.17,SW,225,1.5,4.5,80,0.00,,,0.03,NetBSD+Arduino,2013-06-21 18:19:00,
2013-06-21 11:24:00,60.5,56.3,30.16,NW,315,1.5,4.5,86,0.00,,,0.03,NetBSD+Arduino,2013-06-21 18:24:00,
2013-06-21 11:25:00,60.6,56.7,30.16,West,270,0.0,4.5,86,0.00,,,0.03,NetBSD+Arduino,2013-06-21 18:25:00,
2013-06-21 11:26:00,60.9,57.7,30.17,West,270,1.5,3.0,89,0.00,,,0.03,NetBSD+Arduino,2013-06-21 18:26:00,
2013-06-21 11:31:00,61.3,55.6,30.17,ESE,112,0.0,3.0,81,0.00,,,0.03,NetBSD+Arduino,2013-06-21 18:31:00,
2013-06-21 11:32:00,61.2,54.7,30.17,SW,225,0.0,3.0,79,0.00,,,0.03,NetBSD+Arduino,2013-06-21 18:32:00,
2013-06-21 11:35:00,61.2,54.8,30.17,West,270,1.5,3.0,79,0.00,,,0.03,NetBSD+Arduino,2013-06-21 18:35:00,
2013-06-21 11:40:00,61.6,56.5,30.17,NW,315,1.5,3.0,83,0.00,,,0.03,NetBSD+Arduino,2013-06-21 18:40:00,
2013-06-21 11:46:00,62.4,54.5,30.17,ESE,108,1.5,3.0,75,0.00,,,0.03,NetBSD+Arduino,2013-06-21 18:46:00,
2013-06-21 11:47:00,63.1,57.2,30.17,West,270,0.0,3.0,81,0.00,,,0.03,NetBSD+Arduino,2013-06-21 18:47:00,
2013-06-21 11:48:00,63.1,56.8,30.17,SW,225,1.5,3.0,79,0.00,,,0.03,NetBSD+Arduino,2013-06-21 18:48:00,
2013-06-21 11:53:00,64.4,55.2,30.17,South,180,1.5,3.0,72,0.00,,,0.03,NetBSD+Arduino,2013-06-21 18:53:00,
2013-06-21 11:58:00,65.1,57.3,30.17,ESE,110,0.0,6.0,75,0.00,,,0.03,NetBSD+Arduino,2013-06-21 18:58:00,
2013-06-21 11:59:00,65.2,57.1,30.17,ESE,109,0.0,4.5,75,0.00,,,0.03,NetBSD+Arduino,2013-06-21 18:59:00,
2013-06-21 12:04:00,65.9,57.6,30.17,SW,225,0.0,4.5,74,0.00,,,0.03,NetBSD+Arduino,2013-06-21 19:04:00,
2013-06-21 12:09:00,65.7,54.6,30.17,SE,135,4.5,7.5,67,0.00,,,0.03,NetBSD+Arduino,2013-06-21 19:09:00,
2013-06-21 12:14:00,66.4,57.8,30.17,SW,225,0.0,3.0,73,0.00,,,0.03,NetBSD+Arduino,2013-06-21 19:14:00,
2013-06-21 12:20:00,64.8,53.6,30.17,SW,225,3.0,4.5,67,0.00,,,0.03,NetBSD+Arduino,2013-06-21 19:20:00,
2013-06-21 12:25:00,65.1,50.8,30.16,SE,135,0.0,4.5,60,0.00,,,0.03,NetBSD+Arduino,2013-06-21 19:25:00,
2013-06-21 12:27:00,65.7,53.3,30.16,South,180,0.0,3.0,64,0.00,,,0.03,NetBSD+Arduino,2013-06-21 19:27:00,
2013-06-21 12:32:00,66.5,54.2,30.16,SW,225,3.0,3.0,64,0.00,,,0.03,NetBSD+Arduino,2013-06-21 19:32:00,
2013-06-21 12:37:00,66.8,53.4,30.16,SE,135,0.0,7.5,62,0.00,,,0.03,NetBSD+Arduino,2013-06-21 19:37:00,
2013-06-21 12:42:00,66.9,53.3,30.16,SE,141,3.0,6.0,61,0.00,,,0.03,NetBSD+Arduino,2013-06-21 19:42:00,
2013-06-21 12:43:00,66.8,54.5,30.16,SSW,197,3.0,6.0,64,0.00,,,0.03,NetBSD+Arduino,2013-06-21 19:43:00,
2013-06-21 12:48:00,65.1,54.1,30.16,NW,315,1.5,4.5,67,0.00,,,0.03,NetBSD+Arduino,2013-06-21 19:48:00,
2013-06-21 12:53:00,65.3,54.5,30.16,SE,135,0.0,4.5,68,0.00,,,0.03,NetBSD+Arduino,2013-06-21 19:53:00,
2013-06-21 12:58:00,66.5,55.9,30.16,SE,135,4.5,6.0,68,0.00,,,0.03,NetBSD+Arduino,2013-06-21 19:58:00,
2013-06-21 13:03:00,67.1,55.3,30.16,SE,135,1.5,7.5,65,0.00,,,0.03,NetBSD+Arduino,2013-06-21 20:03:00,
2013-06-21 13:08:00,67.0,53.8,30.16,South,180,4.5,7.5,62,0.00,,,0.03,NetBSD+Arduino,2013-06-21 20:08:00,
2013-06-21 13:13:00,65.9,54.9,30.16,WNW,297,3.0,6.0,67,0.00,,,0.03,NetBSD+Arduino,2013-06-21 20:13:00,
2013-06-21 13:14:00,65.9,54.8,30.16,WNW,297,3.0,6.0,67,0.00,,,0.03,NetBSD+Arduino,2013-06-21 20:14:00,
2013-06-21 13:19:00,65.7,53.7,30.16,South,180,0.0,4.5,65,0.00,,,0.03,NetBSD+Arduino,2013-06-21 20:19:00,
2013-06-21 13:24:00,65.8,52.6,30.16,South,180,1.5,7.5,62,0.00,,,0.03,NetBSD+Arduino,2013-06-21 20:24:00,
2013-06-21 13:29:00,64.5,55.0,30.15,SE,135,0.0,6.0,71,0.00,,,0.03,NetBSD+Arduino,2013-06-21 20:29:00,
2013-06-21 13:34:00,64.4,53.1,30.16,WNW,297,3.0,7.5,66,0.00,,,0.03,NetBSD+Arduino,2013-06-21 20:34:00,
2013-06-21 13:40:00,64.3,52.9,30.15,SSW,196,3.0,3.0,66,0.00,,,0.03,NetBSD+Arduino,2013-06-21 20:40:00,
2013-06-21 13:45:00,63.9,52.1,30.16,South,180,0.0,4.5,65,0.00,,,0.03,NetBSD+Arduino,2013-06-21 20:45:00,
2013-06-21 13:50:00,63.7,53.7,30.16,NE,45,1.5,4.5,69,0.00,,,0.03,NetBSD+Arduino,2013-06-21 20:50:00,
2013-06-21 13:56:00,64.1,53.5,30.16,SW,225,1.5,7.5,68,0.00,,,0.03,NetBSD+Arduino,2013-06-21 20:56:00,
2013-06-21 14:01:00,64.2,53.6,30.16,SE,135,0.0,4.5,68,0.00,,,0.03,NetBSD+Arduino,2013-06-21 21:01:00,
2013-06-21 14:05:00,64.7,53.3,30.16,South,180,3.0,4.5,66,0.00,,,0.03,NetBSD+Arduino,2013-06-21 21:05:00,
2013-06-21 14:10:00,64.2,51.7,30.16,ESE,110,1.5,6.0,63,0.00,,,0.03,NetBSD+Arduino,2013-06-21 21:10:00,
2013-06-21 14:15:00,64.4,53.4,30.16,SSW,198,3.0,4.5,67,0.00,,,0.03,NetBSD+Arduino,2013-06-21 21:15:00,
2013-06-21 14:20:00,64.8,52.0,30.16,SE,135,0.0,4.5,63,0.00,,,0.03,NetBSD+Arduino,2013-06-21 21:20:00,
2013-06-21 14:25:00,65.1,52.5,30.16,SSW,196,3.0,4.5,63,0.00,,,0.03,NetBSD+Arduino,2013-06-21 21:25:00,
2013-06-21 14:31:00,65.5,53.0,30.16,NW,315,1.5,4.5,63,0.00,,,0.03,NetBSD+Arduino,2013-06-21 21:31:00,
2013-06-21 14:36:00,65.8,53.2,30.16,South,180,4.5,4.5,63,0.00,,,0.03,NetBSD+Arduino,2013-06-21 21:36:00,
2013-06-21 14:41:00,66.1,52.7,30.16,SW,225,4.5,6.0,62,0.00,,,0.03,NetBSD+Arduino,2013-06-21 21:41:00,
2013-06-21 14:49:00,65.7,53.7,30.16,South,180,0.0,3.0,65,0.00,,,0.03,NetBSD+Arduino,2013-06-21 21:49:00,
2013-06-21 14:59:00,65.9,54.6,30.16,West,270,1.5,6.0,66,0.00,,,0.03,NetBSD+Arduino,2013-06-21 21:59:00,
2013-06-21 15:06:00,66.1,55.3,30.16,SE,135,0.0,4.5,68,0.00,,,0.03,NetBSD+Arduino,2013-06-21 22:06:00,
2013-06-21 17:26:00,66.8,53.0,30.15,NW,315,4.5,6.0,61,0.00,,,0.03,NetBSD+Arduino,2013-06-22 00:26:00,
2013-06-21 17:31:00,66.5,52.7,30.15,ESE,111,1.5,7.5,61,0.00,,,0.03,NetBSD+Arduino,2013-06-22 00:31:00,
2013-06-21 17:36:00,66.2,52.4,30.15,East,101,1.5,6.0,61,0.00,,,0.03,NetBSD+Arduino,2013-06-22 00:36:00,
2013-06-21 17:42:00,66.4,52.1,30.14,SSW,199,1.5,4.5,60,0.00,,,0.03,NetBSD+Arduino,2013-06-22 00:42:00,
2013-06-21 17:47:00,66.3,51.8,30.14,WNW,296,0.0,6.0,59,0.00,,,0.03,NetBSD+Arduino,2013-06-22 00:47:00,
2013-06-21 17:52:00,65.9,50.6,30.13,West,270,0.0,7.5,57,0.00,,,0.03,NetBSD+Arduino,2013-06-22 00:52:00,
2013-06-21 17:57:00,65.7,51.4,30.13,SSW,198,3.0,6.0,60,0.00,,,0.03,NetBSD+Arduino,2013-06-22 00:57:00,
2013-06-21 18:02:00,65.4,51.8,30.13,ESE,111,1.5,6.0,61,0.00,,,0.03,NetBSD+Arduino,2013-06-22 01:02:00,
2013-06-21 18:07:00,65.5,51.7,30.13,SE,135,3.0,6.0,61,0.00,,,0.03,NetBSD+Arduino,2013-06-22 01:07:00,
2013-06-21 18:12:00,65.6,50.7,30.13,WNW,297,3.0,7.5,58,0.00,,,0.03,NetBSD+Arduino,2013-06-22 01:12:00,
2013-06-21 18:17:00,65.2,50.5,30.13,SSW,199,3.0,6.0,59,0.00,,,0.03,NetBSD+Arduino,2013-06-22 01:17:00,
2013-06-21 18:22:00,64.7,50.7,30.13,SE,135,4.5,4.5,60,0.00,,,0.03,NetBSD+Arduino,2013-06-22 01:22:00,
2013-06-21 18:27:00,64.7,50.2,30.13,ESE,111,4.5,7.5,59,0.00,,,0.03,NetBSD+Arduino,2013-06-22 01:27:00,
2013-06-21 18:32:00,64.5,50.1,30.13,SSW,198,1.5,6.0,59,0.00,,,0.03,NetBSD+Arduino,2013-06-22 01:32:00,
2013-06-21 18:37:00,64.4,49.9,30.13,West,270,0.0,4.5,59,0.00,,,0.03,NetBSD+Arduino,2013-06-22 01:37:00,
2013-06-21 18:42:00,64.3,50.9,30.13,WNW,299,3.0,4.5,61,0.00,,,0.03,NetBSD+Arduino,2013-06-22 01:42:00,
2013-06-21 18:47:00,64.5,50.3,30.13,ESE,109,0.0,4.5,59,0.00,,,0.03,NetBSD+Arduino,2013-06-22 01:47:00,
2013-06-21 18:52:00,64.4,50.4,30.13,WNW,297,1.5,6.0,60,0.00,,,0.03,NetBSD+Arduino,2013-06-22 01:52:00,
2013-06-21 18:58:00,64.5,50.9,30.12,East,90,0.0,6.0,61,0.00,,,0.03,NetBSD+Arduino,2013-06-22 01:58:00,
2013-06-21 19:03:00,64.4,50.4,30.12,SSW,197,1.5,4.5,60,0.00,,,0.03,NetBSD+Arduino,2013-06-22 02:03:00,
2013-06-21 19:08:00,64.5,50.5,30.13,West,270,0.0,6.0,60,0.00,,,0.03,NetBSD+Arduino,2013-06-22 02:08:00,
2013-06-21 19:13:00,64.4,50.0,30.13,South,180,0.0,6.0,59,0.00,,,0.03,NetBSD+Arduino,2013-06-22 02:13:00,
2013-06-21 19:18:00,64.3,50.3,30.12,East,90,1.5,3.0,60,0.00,,,0.03,NetBSD+Arduino,2013-06-22 02:18:00,
2013-06-21 19:23:00,64.2,51.5,30.12,South,180,0.0,4.5,63,0.00,,,0.03,NetBSD+Arduino,2013-06-22 02:23:00,
2013-06-21 19:28:00,64.0,50.8,30.12,WNW,296,0.0,3.0,62,0.00,,,0.03,NetBSD+Arduino,2013-06-22 02:28:00,
2013-06-21 19:33:00,63.9,50.9,30.12,West,270,0.0,4.5,62,0.00,,,0.03,NetBSD+Arduino,2013-06-22 02:33:00,
2013-06-21 19:38:00,63.9,50.9,30.12,SSW,197,0.0,3.0,62,0.00,,,0.03,NetBSD+Arduino,2013-06-22 02:38:00,
2013-06-21 19:43:00,63.8,51.8,30.12,South,180,1.5,3.0,65,0.00,,,0.03,NetBSD+Arduino,2013-06-22 02:43:00,
2013-06-21 19:48:00,63.5,52.0,30.12,South,180,0.0,4.5,66,0.00,,,0.03,NetBSD+Arduino,2013-06-22 02:48:00,
2013-06-21 19:53:00,63.4,52.2,30.12,West,270,0.0,3.0,66,0.00,,,0.03,NetBSD+Arduino,2013-06-22 02:53:00,
2013-06-21 19:59:00,63.1,52.4,30.12,South,180,0.0,3.0,67,0.00,,,0.03,NetBSD+Arduino,2013-06-22 02:59:00,
2013-06-21 20:04:00,62.9,52.2,30.12,South,180,0.0,3.0,67,0.00,,,0.03,NetBSD+Arduino,2013-06-22 03:04:00,
2013-06-21 20:09:00,62.8,52.2,30.12,SW,225,1.5,4.5,68,0.00,,,0.03,NetBSD+Arduino,2013-06-22 03:09:00,
2013-06-21 20:15:00,62.6,52.8,30.12,South,180,0.0,3.0,70,0.00,,,0.03,NetBSD+Arduino,2013-06-22 03:15:00,
2013-06-21 20:20:00,62.3,52.5,30.12,West,270,0.0,0.0,70,0.00,,,0.03,NetBSD+Arduino,2013-06-22 03:20:00,
2013-06-21 20:25:00,62.1,52.6,30.12,SW,225,0.0,0.0,71,0.00,,,0.03,NetBSD+Arduino,2013-06-22 03:25:00,
2013-06-21 20:30:00,62.1,50.0,30.12,West,270,0.0,0.0,64,0.00,,,0.03,NetBSD+Arduino,2013-06-22 03:30:00,
2013-06-21 20:35:00,61.9,51.3,30.12,NW,315,0.0,0.0,68,0.00,,,0.03,NetBSD+Arduino,2013-06-22 03:35:00,
2013-06-21 20:40:00,61.7,50.7,30.12,NW,315,0.0,0.0,67,0.00,,,0.03,NetBSD+Arduino,2013-06-22 03:40:00,
2013-06-21 20:45:00,61.6,51.2,30.12,West,270,0.0,0.0,68,0.00,,,0.03,NetBSD+Arduino,2013-06-22 03:45:00,
2013-06-21 20:50:00,61.3,50.8,30.12,West,270,0.0,0.0,68,0.00,,,0.03,NetBSD+Arduino,2013-06-22 03:50:00,
2013-06-21 20:56:00,60.9,51.0,30.12,West,270,0.0,0.0,70,0.00,,,0.03,NetBSD+Arduino,2013-06-22 03:56:00,
2013-06-21 21:01:00,60.6,51.3,30.12,NW,315,0.0,0.0,71,0.00,,,0.03,NetBSD+Arduino,2013-06-22 04:01:00,
2013-06-21 21:02:00,60.6,51.6,30.12,NW,315,0.0,0.0,72,0.00,,,0.03,NetBSD+Arduino,2013-06-22 04:02:00,
2013-06-21 21:04:00,60.5,51.7,30.12,West,270,0.0,0.0,72,0.00,,,0.03,NetBSD+Arduino,2013-06-22 04:04:00,
2013-06-21 21:05:00,60.4,51.6,30.12,NW,315,0.0,0.0,72,0.00,,,0.03,NetBSD+Arduino,2013-06-22 04:05:00,
2013-06-21 21:10:00,60.4,51.2,30.12,West,270,0.0,0.0,71,0.00,,,0.03,NetBSD+Arduino,2013-06-22 04:10:00,
2013-06-21 21:15:00,60.2,51.4,30.13,West,270,0.0,0.0,72,0.00,,,0.03,NetBSD+Arduino,2013-06-22 04:15:00,
2013-06-21 21:20:00,60.2,50.9,30.12,West,270,0.0,0.0,71,0.00,,,0.03,NetBSD+Arduino,2013-06-22 04:20:00,
2013-06-21 21:25:00,60.1,50.8,30.12,SSW,197,3.0,4.5,71,0.00,,,0.03,NetBSD+Arduino,2013-06-22 04:25:00,
2013-06-21 21:31:00,60.2,52.0,30.13,ESE,108,1.5,4.5,74,0.00,,,0.03,NetBSD+Arduino,2013-06-22 04:31:00,
2013-06-21 21:36:00,60.2,52.5,30.13,SSW,198,0.0,1.5,75,0.00,,,0.03,NetBSD+Arduino,2013-06-22 04:36:00,
2013-06-21 21:41:00,59.9,52.7,30.13,SSW,199,0.0,1.5,77,0.00,,,0.03,NetBSD+Arduino,2013-06-22 04:41:00,
2013-06-21 21:46:00,59.8,52.7,30.13,NW,315,0.0,0.0,77,0.00,,,0.03,NetBSD+Arduino,2013-06-22 04:46:00,
2013-06-21 21:51:00,59.5,53.4,30.13,ESE,109,1.5,1.5,80,0.00,,,0.03,NetBSD+Arduino,2013-06-22 04:51:00,
2013-06-21 21:56:00,59.2,53.0,30.13,ESE,110,0.0,1.5,79,0.00,,,0.03,NetBSD+Arduino,2013-06-22 04:56:00,
2013-06-21 22:01:00,59.0,52.9,30.13,ESE,108,0.0,1.5,80,0.00,,,0.03,NetBSD+Arduino,2013-06-22 05:01:00,
2013-06-21 22:06:00,58.9,52.9,30.13,ESE,111,0.0,1.5,80,0.00,,,0.03,NetBSD+Arduino,2013-06-22 05:06:00,
2013-06-21 22:11:00,58.7,53.0,30.13,West,270,0.0,0.0,81,0.00,,,0.03,NetBSD+Arduino,2013-06-22 05:11:00,
2013-06-21 22:16:00,58.4,52.7,30.13,NW,315,0.0,0.0,81,0.00,,,0.03,NetBSD+Arduino,2013-06-22 05:16:00,
2013-06-21 22:21:00,58.2,52.7,30.13,East,101,0.0,0.0,81,0.00,,,0.03,NetBSD+Arduino,2013-06-22 05:21:00,
2013-06-21 22:26:00,58.2,52.7,30.13,NW,315,0.0,0.0,81,0.00,,,0.03,NetBSD+Arduino,2013-06-22 05:26:00,
2013-06-21 22:31:00,58.2,52.7,30.13,NW,315,0.0,0.0,81,0.00,,,0.03,NetBSD+Arduino,2013-06-22 05:31:00,
2013-06-21 22:37:00,58.0,52.7,30.13,West,270,0.0,1.5,82,0.00,,,0.03,NetBSD+Arduino,2013-06-22 05:37:00,
2013-06-21 22:43:00,57.9,52.7,30.13,SSW,196,0.0,3.0,82,0.00,,,0.03,NetBSD+Arduino,2013-06-22 05:43:00,
2013-06-21 22:51:00,57.5,52.6,30.13,NW,315,1.5,3.0,83,0.00,,,0.03,NetBSD+Arduino,2013-06-22 05:51:00,
2013-06-21 22:57:00,57.1,52.5,30.13,West,270,1.5,3.0,84,0.00,,,0.03,NetBSD+Arduino,2013-06-22 05:57:00,
2013-06-21 23:02:00,56.9,52.6,30.13,West,270,0.0,1.5,85,0.00,,,0.03,NetBSD+Arduino,2013-06-22 06:02:00,
2013-06-21 23:07:00,56.6,52.4,30.13,NW,315,0.0,1.5,85,0.00,,,0.03,NetBSD+Arduino,2013-06-22 06:07:00,
2013-06-21 23:14:00,56.3,52.4,30.13,NW,315,0.0,3.0,86,0.00,,,0.03,NetBSD+Arduino,2013-06-22 06:14:00,